FW6569 Weather Reports


time (UTC)temp
F
wind
direction
speed
knots
gust
knots
rain 1hr
in
rain 24hr
in
rain mn
in
humidity
%
barometer
mb
20260902230524 93 0.0 0.0 0.00 0.00 0.00 66 1017.1
20260902225524 93 0.0 0.0 0.00 0.00 0.00 65 1017.1
20260902224524 93 0.0 0.0 0.00 0.00 0.00 66 1017.2
20260902223524 92 0.0 0.0 0.00 0.00 0.00 66 1017.2
20260902222525 92 250 0.0 1.7 0.00 0.00 0.00 66 1017.2
20260902221525 93 204 2.6 3.5 0.00 0.00 0.00 61 1017.3
20260902220524 94 209 3.5 5.2 0.00 0.00 0.00 58 1017.4
20260902215524 94 215 4.3 6.1 0.00 0.00 0.00 58 1017.4
20260902214544 94 207 5.2 7.8 0.00 0.00 0.00 58 1017.4
20260902213524 95 206 3.5 6.1 0.00 0.00 0.00 59 1017.4
20260902212657 91 213 3.5 4.3 0.00 0.00 0.00 61 1017.5
20260902211616 93 204 4.3 5.2 0.00 0.00 0.00 57 1017.5
20260902210555 94 207 5.2 7.0 0.00 0.00 0.00 57 1017.5
20260902205524 94 211 5.2 7.8 0.00 0.00 0.00 57 1017.6
20260902204524 94 197 4.3 6.1 0.00 0.00 0.00 58 1017.6
20260902203534 95 207 4.3 6.1 0.00 0.00 0.00 56 1017.8
20260902202545 96 214 3.5 5.2 0.00 0.00 0.00 55 1017.8
20260902201614 95 247 2.6 4.3 0.00 0.00 0.00 54 1017.9
20260902200545 94 255 3.5 7.0 0.00 0.00 0.00 57 1018.0
20260902195605 93 222 6.1 9.6 0.00 0.00 0.00 55 1018.1
20260902194544 94 211 4.3 6.1 0.00 0.00 0.00 56 1018.2
20260902193544 95 194 6.1 8.7 0.00 0.00 0.00 54 1018.3
20260902192625 94 199 3.5 6.1 0.00 0.00 0.00 59 1018.4
20260902191525 92 207 4.3 5.2 0.00 0.00 0.00 57 1018.5
20260902190644 93 214 6.1 7.8 0.00 0.00 0.00 57 1018.5
20260902185515 93 206 3.5 5.2 0.00 0.00 0.00 60 1018.6
20260902184604 93 193 5.2 7.8 0.00 0.00 0.00 59 1018.6
20260902183525 93 229 5.2 6.1 0.00 0.00 0.00 59 1018.6
20260902182524 93 240 4.3 7.8 0.00 0.00 0.00 57 1018.8
20260902181525 92 208 5.2 9.6 0.00 0.00 0.00 61 1018.8
20260902180545 92 221 6.1 7.8 0.00 0.00 0.00 60 1018.9
20260902175525 92 191 5.2 7.0 0.00 0.00 0.00 62 1019.0
20260902174535 92 192 5.2 7.0 0.00 0.00 0.00 62 1019.1
20260902173524 92 215 5.2 9.6 0.00 0.00 0.00 61 1019.3
20260902172615 93 228 3.5 7.0 0.00 0.00 0.00 61 1019.3
20260902171525 93 187 5.2 9.6 0.00 0.00 0.00 60 1019.4
20260902170515 92 200 4.3 5.2 0.00 0.00 0.00 65 1019.5
20260902165525 91 219 5.2 8.7 0.00 0.00 0.00 64 1019.6
20260902164524 91 197 5.2 7.8 0.00 0.00 0.00 64 1019.7
20260902163525 91 211 4.3 7.0 0.00 0.00 0.00 65 1019.7
20260902162526 91 224 4.3 7.0 0.00 0.00 0.00 65 1019.8
20260902161524 91 230 3.5 7.0 0.00 0.00 0.00 66 1019.8
20260902160545 90 206 6.1 7.8 0.00 0.00 0.00 67 1019.8
20260902155525 90 207 5.2 6.1 0.00 0.00 0.00 69 1019.8
20260902154525 89 209 4.3 6.1 0.00 0.00 0.00 68 1019.8
20260902153525 89 222 5.2 7.0 0.00 0.00 0.00 69 1019.8
20260902152525 89 216 4.3 6.1 0.00 0.00 0.00 70 1019.9
20260902151525 89 220 3.5 5.2 0.00 0.00 0.00 69 1019.9
20260902150525 88 214 4.3 6.1 0.00 0.00 0.00 71 1020.0
20260902145525 88 211 4.3 6.1 0.00 0.00 0.00 70 1020.0
20260902144525 87 218 2.6 5.2 0.00 0.00 0.00 71 1020.1
20260902143525 86 206 3.5 6.1 0.00 0.00 0.00 73 1020.0
20260902142535 86 207 3.5 6.1 0.00 0.00 0.00 75 1020.0
20260902141525 85 217 3.5 5.2 0.00 0.00 0.00 75 1020.0
20260902140525 85 210 3.5 5.2 0.00 0.00 0.00 78 1019.9
20260902135525 84 209 2.6 4.3 0.00 0.00 0.00 78 1020.0
20260902134525 83 210 2.6 3.5 0.00 0.00 0.00 78 1020.1
20260902133545 82 205 2.6 3.5 0.00 0.00 0.00 81 1020.1
20260902132535 81 212 3.5 5.2 0.00 0.00 0.00 82 1020.1
20260902131525 81 202 2.6 4.3 0.00 0.00 0.00 82 1020.1
20260902130545 80 203 1.7 2.6 0.00 0.00 0.00 84 1020.0
20260902125525 78 0.0 0.0 0.00 0.00 0.00 91 1020.0
20260902124526 76 0.0 0.0 0.00 0.00 0.00 96 1020.1
20260902123525 74 0.0 0.0 0.00 0.00 0.00 97 1020.1
20260902122526 74 0.0 0.0 0.00 0.00 0.00 98 1020.0
20260902121525 73 0.0 0.0 0.00 0.00 0.00 99 1019.9
20260902120525 71 0.0 0.0 0.00 0.00 0.00 99 1019.8
20260902115526 70 0.0 0.0 0.00 0.00 0.00 99 1019.6
20260902114525 69 0.0 0.0 0.00 0.00 0.00 99 1019.5
20260902113526 69 0.0 0.0 0.00 0.00 0.00 99 1019.4
20260902112525 69 0.0 0.0 0.00 0.00 0.00 99 1019.3
20260902111525 69 0.0 0.0 0.00 0.00 0.00 99 1019.2
20260902110525 69 0.0 0.0 0.00 0.00 0.00 99 1019.2
20260902105526 69 0.0 0.0 0.00 0.00 0.00 99 1019.2
20260902104626 69 0.0 0.0 0.00 0.00 0.00 99 1019.2
20260902103526 69 0.0 0.0 0.00 0.00 0.00 99 1019.1
20260902102545 69 0.0 0.0 0.00 0.00 0.00 99 1019.1
20260902101605 69 0.0 0.0 0.00 0.00 0.00 99 1019.1
20260902100526 69 0.0 0.0 0.00 0.00 0.00 99 1019.1
20260902095525 69 0.0 0.0 0.00 0.00 0.00 99 1019.0
20260902094525 69 0.0 0.0 0.00 0.00 0.00 99 1018.9
20260902093526 69 0.0 0.0 0.00 0.00 0.00 99 1018.9
20260902092525 69 0.0 0.0 0.00 0.00 0.00 99 1018.9
20260902091526 70 0.0 0.0 0.00 0.00 0.00 99 1018.9
20260902090525 69 0.0 0.0 0.00 0.00 0.00 99 1018.7
20260902085526 70 0.0 0.0 0.00 0.00 0.00 99 1018.8
20260902084526 70 0.0 0.0 0.00 0.00 0.00 99 1018.7
20260902083525 70 0.0 0.0 0.00 0.00 0.00 99 1018.6
20260902082526 70 0.0 0.0 0.00 0.00 0.00 99 1018.4
20260902081526 70 0.0 0.0 0.00 0.00 0.00 99 1018.3
20260902080526 70 0.0 0.0 0.00 0.00 0.00 99 1018.3
20260902075607 70 0.0 0.0 0.00 0.00 0.00 99 1018.3
20260902074526 70 0.0 0.0 0.00 0.00 0.00 98 1018.3
20260902073526 70 0.0 0.0 0.00 0.00 0.00 98 1018.3
20260902072526 70 0.0 0.0 0.00 0.00 0.00 98 1018.3
20260902071526 71 0.0 0.0 0.00 0.00 0.00 98 1018.3
20260902070526 71 0.0 0.0 0.00 0.00 0.00 98 1018.4
20260902065527 71 0.0 0.0 0.00 0.00 0.00 98 1018.4
20260902064526 71 0.0 0.0 0.00 0.00 0.00 98 1018.4
20260902063526 71 0.0 0.0 0.00 0.00 0.00 98 1018.4
20260902062526 71 0.0 0.0 0.00 0.00 0.00 98 1018.4
20260902061526 71 0.0 0.0 0.00 0.00 0.00 98 1018.4
20260902060526 71 0.0 0.0 0.00 0.00 0.00 98 1018.4
20260902055526 71 0.0 0.0 0.00 0.00 0.00 98 1018.4
20260902054526 71 0.0 0.0 0.00 0.00 0.00 98 1018.4
20260902053547 71 0.0 0.0 0.00 0.00 0.00 98 1018.3
20260902052526 72 0.0 0.0 0.00 0.00 0.00 97 1018.4
20260902051526 72 0.0 0.0 0.00 0.00 0.00 97 1018.3
20260902050547 72 0.0 0.0 0.00 0.00 0.00 97 1018.4
20260902045606 72 0.0 0.0 0.00 0.00 0.00 97 1018.3
20260902044526 72 0.0 0.0 0.00 0.00 0.00 97 1018.3
20260902043547 73 0.0 0.0 0.00 0.00 0.00 97 1018.4
20260902042526 73 0.0 0.0 0.00 0.00 0.00 97 1018.4
20260902041526 73 0.0 0.0 0.00 0.00 0.00 97 1018.4
20260902040547 73 0.0 0.0 0.00 0.00 0.00 96 1018.4
20260902035546 73 0.0 0.0 0.00 0.00 0.00 96 1018.5
20260902034526 73 0.0 0.0 0.00 0.00 0.00 96 1018.4
20260902033526 73 0.0 0.0 0.00 0.00 0.00 96 1018.4
20260902032526 74 0.0 0.0 0.00 0.00 0.00 96 1018.4
20260902031547 74 0.0 0.0 0.00 0.00 0.00 96 1018.4
20260902030526 74 0.0 0.0 0.00 0.00 0.00 95 1018.4
20260902025526 74 0.0 0.0 0.00 0.00 0.00 95 1018.4
20260902024527 75 0.0 0.0 0.00 0.00 0.00 95 1018.4
20260902023526 75 0.0 0.0 0.00 0.00 0.00 95 1018.4
20260902022527 75 0.0 0.0 0.00 0.00 0.00 95 1018.4
20260902021526 76 0.0 0.0 0.00 0.00 0.00 94 1018.4
20260902020526 76 0.0 0.0 0.00 0.00 0.00 94 1018.4
20260902015547 76 0.0 0.0 0.00 0.00 0.00 93 1018.4
20260902014546 76 0.0 0.0 0.00 0.00 0.00 93 1018.3
20260902013527 77 0.0 0.0 0.00 0.00 0.00 92 1018.3
20260902012527 77 0.0 0.0 0.00 0.00 0.00 92 1018.1
20260902011527 78 0.0 0.0 0.00 0.00 0.00 92 1018.0
20260902010527 79 0.0 0.0 0.00 0.00 0.00 92 1017.9
20260902005547 79 0.0 0.0 0.00 0.00 0.00 90 1017.8
20260902004537 79 0.0 0.0 0.00 0.00 0.00 89 1017.7
20260902003627 80 0.0 0.0 0.00 0.00 0.00 88 1017.6
20260902002527 82 200 0.9 1.7 0.00 0.00 0.00 87 1017.7
20260902001637 83 216 0.0 1.7 0.00 0.00 0.00 85 1017.8
20260902000527 84 0.0 0.0 0.00 0.00 0.00 83 1017.9
20260901235526 83 182 0.9 1.7 0.00 0.00 0.00 83 1017.9
20260901234537 86 0.0 0.9 0.00 0.00 0.00 75 1017.9
20260901233607 88 0.0 0.0 0.00 0.00 0.00 73 1018.1
20260901232527 89 0.0 0.0 0.00 0.00 0.00 71 1018.1
20260901231527 91 0.0 0.0 0.00 0.00 0.00 68 1018.1